SCP
0 0 0 0 0 0 0 0 0 -0 0 0 0 0 0 0 0 0 0 0 0 0 0 0 0 0 0 0 0 0 0 0 0 0 0 0 0 0 0 0 0 0 0 0
0 0 0 0 0 0 0 0 0 0 0 0 0 0 0 0 0 0 0 0 0 0 0 0 0 0 0 0 0 0 0 0 0 -0 -0 0 0 0 0 0 0 0 0 0
0 0 0 0 0 0 0 0 0 0 0 0 0 0 0 0 0 0 0 0 0 0 0 0 0 0 0 0 0 0 0 0 0 0 0 -0 0 0 0 0 0 0 0 0
0 0 0 0 0 0 0 0 0 0 0 0 0 0 0 0 0 0 0 0 0 0 0 0 0 0 0 0 0 0 0 0 0 0 0 0 0 0 0 0 0 0 0 0
0 0 0 0 0 0 0 0 0 0 0 0 0 0 0 0 0 0 0 0 0 0 0 0 0 0 0 0 0 0 0 0 0 0 0 0 0 0 0 0 0 0 0 0
0 0 0 0 0 0 0 0 0 0 0 0 0 0 0 0 0 0 0 0 0 0 0 0 0 0 0 0 0 0 0 0 0 0 0 0 0 0 0 0 0 0 0 0
0 0 0 0 0 0 0 0 0 0 0 0 0 0 0 0 0 0 0 0 0 0 0 0 0 0 0 0 0 0 0 0 0 0 0 0 0 0 0 0 0 0 0 0
0 0 0 0 0 0 0 0 0 0 0 0 0 0 0 0 0 0 0 0 0 0 0 0 0 0 0 0 0 0 0 0 0 0 0 0 0 0 0 0 0 0 0 0
0 0 0 0 0 0 0 0 0 0 0 0 0 0 0 0 0 0 0 0 0 0 0 0 0 0 0 0 0 0 0 0 0 0 0 0 0 0 0 0 0 0 0 0
0 0 0 0 0 0 0 0 0 0 0 0 0 0 0 0 0 0 0 0 0 0 0 0 0 0 0 0 0 0 0 0 0 0 0 0 0 0 0 0 0 0 0 0
0 0 0 0 0 0 0 0 0 0 0 0 0 0 0 0 0 0 0 0 0 0 0 0 0 0 0 0 0 0 0 0 0 0 0 0 0 0 0 0 0 0 0 0
0 0 0 0 0 0 0 0 0 0 0 0 0 0 0 0 0 0 0 0 0 0 0 0 0 0 0 0 0 0 0 0 0 0 0 0 0 0 0 0 0 0 0 0
0 0 0 0 0 0 0 0 0 0 0 0 0 0 0 0 0 0 0 0 0 0 0 0 0 0 0 0 0 0 0 0 0 0 0 0 0 0 0 0 0 0 0 0
0 0 0 0 0 0 0 0 0 0 0 0 0 0 0 0 0 0 0 0 0 0 0 0 0 0 0 0 0 0 0 0 0 0 0 0 0 0 0 0 0 0 0 0
0 0 0 0 0 0 0 0 0 0 0 0 0 0 0 0 0 0 0 0 0 0 0 0 0 0 0 0 0 0 0 0 0 0 0 0 0 0 0 0 0 0 0 0
0 0 0 0 0 0 0 0 0 0 0 0 0 0 0 0 0 0 0 0 0 0 0 0 0 0 0 0 0 0 0 0 0 0 0 0 0 0 0 0 0 0 0 0
0 0 0 0 0 0 0 0 0 0 0 0 0 0 0 0 0 0 0 0 0 0 0 0 0 0 0 0 0 0 0 0 0 0 0 -0 -0 -0 -0 -0 0 0 0 0
0 0 0 0 0 0 0 0 0 0 0 0 0 0 0 0 0 0 0 0 0 0 0 0 0 0 0 0 0 0 0 0 0 0 -0 -0 -0 -0 -0 -0 -0 0 0 0
0 0 0 0 0 0 0 0 0 0 0 0 0 0 0 0 0 0 0 0 0 0 0 0 0 0 0 0 0 0 0 -0 -0 -0 -0 -0 -0 -0 -0 -0 0 0 0 0
0 0 0 0 0 0 0 0 0 0 0 0 0 0 0 0 0 0 0 0 0 0 0 0 0 0 0 0 0 0 0 -0 -0 -0 -0 -0 -0 -0 -0 -0 0 0 0 0
0 0 0 0 0 0 0 0 0 0 0 0 0 0 0 0 0 0 0 0 0 0 0 0 0 0 0 0 0 0 0 -0 -0 -0 -0 -0 -0 -0 -0 0 0 0 0 0
0 0 0 0 0 0 0 0 0 0 0 0 0 0 0 0 0 0 0 0 0 0 0 0 0 0 0 0 0 0 0 0 -0 -0 -0 -0 -0 -0 0 0 0 0 0 0
0 0 0 0 0 0 0 0 0 0 0 0 0 0 0 0 0 0 0 0 0 0 0 0 0 0 0 0 0 0 0 0 0 0 0 -0 -0 0 0 0 0 0 0 0
0 0 0 0 0 0 0 0 0 0 0 0 0 0 0 0 0 0 0 0 0 0 0 0 0 0 0 0 0 0 0 0 0 0 0 -0 0 0 0 0 0 0 0 0
0 0 0 0 0 0 0 0 0 0 0 0 0 0 0 0 0 0 0 0 0 0 0 0 0 0 0 0 0 0 0 0 0 0 0 0 0 0 0 0 0 0 0 0
0 0 0 0 0 0 0 0 0 0 0 0 0 0 0 0 0 0 0 0 0 0 0 0 0 0 0 0 0 0 0 0 0 0 0 0 0 0 0 0 0 0 0 0
0 0 0 0 0 0 -0 -0 -0 0 -0 -0 0 0 0 0 0 0 0 0 0 0 -0 -0 0 0 0 0 0 0 0 0 0 0 0 0 0 0 0 0 0 0 0 0
Wind_Speed_500mb
9 14 4 9 20 14 6 9 11 28 34 26 29 30 40 68 44 46 53 54 46 47 43 35 32 24 22 25 34 43 30 30 48 43 36 40 53 52 47 49 52 48 49 48
14 11 14 10 29 13 13 18 25 34 25 35 56 57 51 52 58 53 52 56 52 48 41 44 42 28 25 20 20 22 44 41 38 21 31 45 42 48 44 40 44 50 52 51
7 14 10 12 13 12 6 7 34 23 39 59 43 53 53 54 58 58 59 55 46 45 44 41 35 37 37 33 29 21 18 17 23 34 33 26 28 46 37 38 44 49 53 53
5 10 6 10 12 9 21 12 36 41 39 43 55 50 65 66 67 57 52 51 43 39 36 35 36 30 30 28 27 27 25 23 22 18 21 26 20 30 38 40 36 37 42 51
5 5 7 14 16 5 13 10 34 42 44 62 71 75 51 53 52 52 45 41 39 34 28 27 24 26 22 20 19 22 23 21 17 15 14 14 12 14 25 29 32 42 49 51
5 5 6 4 7 26 24 4 9 58 58 69 64 24 21 56 54 50 42 34 37 31 26 20 18 14 16 16 12 11 12 12 14 11 9 8 5 1 4 9 12 19 25 24
0 3 2 8 14 23 7 13 32 52 62 54 13 31 65 62 53 45 41 32 25 21 16 14 9 9 11 11 12 11 10 11 10 8 7 2 2 2 3 4 3 5 8 11
0 5 5 25 9 11 5 6 39 54 57 46 70 82 67 56 50 39 30 25 17 15 13 11 11 16 16 14 12 16 20 20 19 18 15 12 10 6 1 6 6 5 3 3
7 8 9 29 34 33 42 49 54 68 68 83 76 64 52 41 31 25 23 21 15 10 8 4 6 7 9 11 10 10 13 18 24 25 21 20 19 16 11 7 10 15 17 20
8 10 10 27 34 31 40 53 49 48 52 53 55 49 46 39 30 19 11 7 6 9 10 7 4 6 6 7 7 5 4 6 11 18 20 21 20 20 18 16 14 17 21 25
2 7 9 8 18 33 31 30 37 36 38 49 52 53 51 44 31 22 15 9 8 9 11 8 5 4 1 7 9 8 6 5 5 8 14 20 21 22 20 16 21 23 22 26
8 5 10 24 27 27 33 31 32 34 30 33 37 50 43 36 26 20 14 10 10 8 7 7 5 3 1 6 11 14 15 14 12 8 10 15 21 26 32 35 33 29 27 31
3 18 16 16 47 42 37 37 34 31 31 30 27 30 28 25 18 15 12 13 9 7 6 5 3 4 5 11 16 18 18 18 19 21 22 22 23 27 32 31 42 54 56 52
8 15 6 19 18 44 43 44 41 37 32 29 30 25 22 17 16 17 14 12 10 8 6 9 6 6 9 10 13 19 23 23 24 26 27 28 30 33 36 42 47 46 43 46
9 12 14 18 14 43 49 45 41 42 43 42 37 36 31 25 20 18 13 12 15 10 10 7 4 6 7 8 14 21 25 26 27 29 32 35 37 39 42 46 50 56 59 57
21 18 15 10 2 13 35 37 50 50 47 43 42 39 36 30 28 25 19 17 18 16 13 6 6 5 3 7 14 20 23 26 30 35 37 39 41 43 47 50 54 59 62 64
15 12 13 12 14 14 14 26 37 43 38 43 46 45 45 45 46 39 30 23 20 17 15 15 12 4 6 9 14 18 22 26 31 36 42 45 46 47 48 51 54 59 64 64
16 16 11 8 14 21 22 21 30 40 32 27 32 49 54 56 56 47 40 29 25 23 18 19 15 8 11 10 13 16 22 26 31 40 50 54 53 50 51 52 54 57 62 65
2 15 18 16 16 16 19 30 35 42 42 54 56 39 48 56 65 60 45 40 35 30 26 24 19 11 12 10 13 14 20 26 33 43 53 58 55 52 51 52 56 58 62 64
17 16 17 20 22 22 26 28 32 32 40 47 45 43 39 67 71 64 55 53 40 31 31 24 26 17 12 9 13 14 20 33 40 47 57 62 61 58 56 54 54 58 59 57
9 14 13 10 13 20 22 22 30 33 35 41 45 48 48 52 77 61 59 63 47 44 38 31 31 25 19 12 13 17 23 32 40 48 60 64 62 60 59 58 60 60 60 59
11 12 11 12 12 13 18 23 28 29 30 33 34 34 31 45 71 72 68 71 59 54 50 39 40 32 23 18 19 26 28 30 37 45 59 60 56 57 58 58 61 65 66 66
5 5 2 11 19 24 31 34 33 30 36 36 38 41 42 43 49 51 77 83 63 57 55 41 36 33 27 27 30 33 28 28 35 40 54 51 49 50 53 56 55 60 64 64
2 9 16 22 32 36 36 34 31 35 36 39 39 39 43 47 51 51 53 73 65 64 60 40 32 31 29 33 37 39 32 29 31 35 47 44 43 47 48 50 53 58 62 60
7 10 17 11 19 24 24 23 26 24 28 32 35 38 40 39 41 42 49 48 63 62 55 44 40 35 34 39 40 37 30 26 27 31 41 42 44 50 47 51 53 54 61 57
3 10 9 22 25 30 24 19 19 19 22 19 21 22 20 18 25 39 55 56 55 46 44 40 43 44 40 38 39 36 31 27 30 32 35 40 42 43 53 51 45 44 49 53
1 3 6 8 16 25 41 45 45 35 26 21 6 5 10 13 13 24 34 39 43 43 38 34 34 40 38 36 33 31 30 30 31 33 30 36 37 41 47 51 46 36 38 43
Wind_Direction_500mb
346 359 41 42 359 334 132 177 132 164 143 154 142 132 129 120 109 97 102 99 99 98 98 110 129 170 190 204 208 222 223 222 224 260 252 239 235 229 232 236 241 248 249 248
7 0 38 48 16 28 107 113 79 120 104 137 131 126 122 118 116 106 108 103 106 101 107 94 94 105 125 173 186 211 179 209 203 227 209 252 252 224 228 234 238 239 242 248
335 340 3 28 343 12 44 62 135 126 143 139 137 133 132 129 126 122 110 106 103 97 93 93 94 90 93 101 124 141 171 206 229 217 220 216 235 224 243 246 244 241 240 241
156 5 58 246 287 95 71 60 103 118 135 133 129 125 128 127 123 120 114 111 106 103 105 109 102 104 98 105 115 123 122 112 112 148 208 233 234 229 245 260 256 250 251 252
109 135 291 33 334 304 118 34 129 126 120 119 120 118 115 130 130 123 122 117 113 119 121 122 128 129 137 132 128 131 124 121 118 115 121 148 177 207 246 260 252 260 258 256
82 104 179 138 353 15 75 72 162 131 136 135 129 121 148 138 136 130 132 132 127 132 132 148 149 177 182 161 158 144 132 132 137 146 147 140 132 147 290 286 286 272 258 275
77 205 346 337 357 130 154 224 167 157 154 155 126 145 141 138 132 140 136 143 150 152 154 141 165 214 228 215 222 216 206 207 205 198 189 174 104 65 352 336 275 314 296 264
147 144 186 334 360 154 230 134 159 162 158 150 135 137 140 139 134 138 139 150 170 176 186 197 225 246 257 268 274 270 260 251 247 248 249 244 243 258 322 326 292 317 4 334
143 206 245 72 103 113 110 117 122 139 135 138 135 137 143 142 146 150 153 156 170 194 196 239 263 276 262 269 305 302 263 250 245 245 249 259 263 262 255 262 318 308 297 297
74 326 63 113 112 114 109 111 116 128 141 148 144 146 144 146 149 158 171 189 214 227 235 231 290 307 314 306 319 348 317 260 255 248 244 249 254 266 273 276 273 278 286 294
48 269 133 97 134 133 129 134 137 129 135 145 148 153 155 154 161 169 182 213 245 253 238 235 228 190 67 12 356 355 6 356 321 295 272 261 262 265 264 259 284 299 297 300
208 21 263 223 192 175 160 153 152 156 148 156 162 152 155 156 170 186 195 236 252 254 233 218 202 194 62 19 34 33 31 28 20 0 320 303 290 260 255 263 257 258 266 283
0 339 315 313 210 205 189 181 184 178 182 167 169 173 174 171 190 212 229 247 250 265 264 232 151 128 70 40 37 38 31 24 11 356 346 336 325 317 300 250 262 262 264 267
321 311 283 49 204 192 200 189 189 187 197 207 209 207 211 210 226 233 244 246 261 282 197 150 118 76 61 48 45 29 14 2 355 349 342 336 330 323 317 313 307 294 280 277
281 279 280 300 291 203 201 191 191 195 192 198 209 214 208 212 228 242 249 235 251 194 171 146 119 107 77 46 33 17 5 3 2 357 349 342 333 324 318 313 309 306 303 294
280 262 256 231 229 193 209 215 217 200 195 198 200 209 217 227 227 236 243 247 208 202 206 204 178 105 40 32 19 10 7 9 11 6 358 350 341 332 325 318 312 308 305 304
268 253 231 227 219 193 207 198 193 187 211 200 213 226 219 222 217 220 229 230 223 224 217 256 196 192 337 354 2 7 16 18 15 9 2 354 344 333 324 318 313 309 305 303
231 235 272 276 234 239 223 213 210 211 222 204 284 238 220 218 221 229 236 223 219 212 223 216 196 242 321 331 350 1 3 6 3 3 1 356 349 339 329 322 316 310 307 304
212 229 236 252 257 261 246 248 256 259 256 242 267 260 239 233 236 237 223 213 219 212 214 212 209 246 306 313 344 346 351 360 1 1 357 352 346 341 335 327 322 317 311 309
230 231 240 261 259 252 259 262 252 252 251 241 251 251 255 249 237 223 219 218 233 232 213 212 222 244 271 289 335 340 352 0 1 357 353 349 347 343 338 333 328 322 317 313
233 251 248 268 284 273 276 270 263 256 254 256 262 262 266 248 233 223 230 218 220 210 215 218 228 242 250 274 313 313 331 350 353 352 351 347 345 343 340 337 334 332 327 321
194 209 205 242 262 269 275 277 267 264 267 268 267 263 261 242 231 233 228 226 222 213 209 216 227 237 240 260 297 310 308 331 342 346 348 345 343 343 341 336 337 336 333 329
149 100 5 304 299 294 290 286 283 274 264 255 256 262 262 257 247 244 225 219 214 219 219 220 230 239 242 254 276 299 313 315 333 337 343 345 343 342 342 340 339 340 336 333
166 287 289 300 301 297 297 292 285 278 270 266 260 260 261 260 260 257 243 229 219 215 219 220 233 234 245 255 269 286 300 310 319 329 340 344 341 341 337 336 341 343 338 335
230 272 321 2 354 334 321 312 310 303 281 268 258 263 271 263 258 254 237 219 209 201 212 208 224 234 247 253 263 283 297 305 308 318 338 343 338 343 334 332 334 336 336 337
246 4 69 43 31 28 4 334 324 317 304 306 277 269 270 257 252 242 221 216 196 190 166 198 216 231 247 257 263 278 295 293 298 301 323 339 332 333 343 341 333 326 329 336
242 43 95 56 53 50 57 59 52 46 37 14 303 215 310 250 237 189 171 174 175 181 199 205 215 233 247 258 258 282 292 293 302 300 304 330 328 328 340 340 332 330 333 334
Wind_Speed_850mb
9 14 4 9 20 14 6 9 11 28 34 26 29 30 40 68 44 46 53 54 46 47 43 35 32 24 22 25 34 43 30 30 48 43 36 40 53 52 47 49 52 48 49 48
14 11 14 10 29 13 13 18 25 34 25 35 56 57 51 52 58 53 52 56 52 48 41 44 42 28 25 20 20 22 44 41 38 21 31 45 42 48 44 40 44 50 52 51
7 14 10 12 13 12 6 7 34 23 39 59 43 53 53 54 58 58 59 55 46 45 44 41 35 37 37 33 29 21 18 17 23 34 33 26 28 46 37 38 44 49 53 53
5 10 6 10 12 9 21 12 36 41 39 43 55 50 65 66 67 57 52 51 43 39 36 35 36 30 30 28 27 27 25 23 22 18 21 26 20 30 38 40 36 37 42 51
5 5 7 14 16 5 13 10 34 42 44 62 71 75 51 53 52 52 45 41 39 34 28 27 24 26 22 20 19 22 23 21 17 15 14 14 12 14 25 29 32 42 49 51
5 5 6 4 7 26 24 4 9 58 58 69 64 24 21 56 54 50 42 34 37 31 26 20 18 14 16 16 12 11 12 12 14 11 9 8 5 1 4 9 12 19 25 24
0 3 2 8 14 23 7 13 32 52 62 54 13 31 65 62 53 45 41 32 25 21 16 14 9 9 11 11 12 11 10 11 10 8 7 2 2 2 3 4 3 5 8 11
0 5 5 25 9 11 5 6 39 54 57 46 70 82 67 56 50 39 30 25 17 15 13 11 11 16 16 14 12 16 20 20 19 18 15 12 10 6 1 6 6 5 3 3
7 8 9 29 34 33 42 49 54 68 68 83 76 64 52 41 31 25 23 21 15 10 8 4 6 7 9 11 10 10 13 18 24 25 21 20 19 16 11 7 10 15 17 20
8 10 10 27 34 31 40 53 49 48 52 53 55 49 46 39 30 19 11 7 6 9 10 7 4 6 6 7 7 5 4 6 11 18 20 21 20 20 18 16 14 17 21 25
2 7 9 8 18 33 31 30 37 36 38 49 52 53 51 44 31 22 15 9 8 9 11 8 5 4 1 7 9 8 6 5 5 8 14 20 21 22 20 16 21 23 22 26
8 5 10 24 27 27 33 31 32 34 30 33 37 50 43 36 26 20 14 10 10 8 7 7 5 3 1 6 11 14 15 14 12 8 10 15 21 26 32 35 33 29 27 31
3 18 16 16 47 42 37 37 34 31 31 30 27 30 28 25 18 15 12 13 9 7 6 5 3 4 5 11 16 18 18 18 19 21 22 22 23 27 32 31 42 54 56 52
8 15 6 19 18 44 43 44 41 37 32 29 30 25 22 17 16 17 14 12 10 8 6 9 6 6 9 10 13 19 23 23 24 26 27 28 30 33 36 42 47 46 43 46
9 12 14 18 14 43 49 45 41 42 43 42 37 36 31 25 20 18 13 12 15 10 10 7 4 6 7 8 14 21 25 26 27 29 32 35 37 39 42 46 50 56 59 57
21 18 15 10 2 13 35 37 50 50 47 43 42 39 36 30 28 25 19 17 18 16 13 6 6 5 3 7 14 20 23 26 30 35 37 39 41 43 47 50 54 59 62 64
15 12 13 12 14 14 14 26 37 43 38 43 46 45 45 45 46 39 30 23 20 17 15 15 12 4 6 9 14 18 22 26 31 36 42 45 46 47 48 51 54 59 64 64
16 16 11 8 14 21 22 21 30 40 32 27 32 49 54 56 56 47 40 29 25 23 18 19 15 8 11 10 13 16 22 26 31 40 50 54 53 50 51 52 54 57 62 65
2 15 18 16 16 16 19 30 35 42 42 54 56 39 48 56 65 60 45 40 35 30 26 24 19 11 12 10 13 14 20 26 33 43 53 58 55 52 51 52 56 58 62 64
17 16 17 20 22 22 26 28 32 32 40 47 45 43 39 67 71 64 55 53 40 31 31 24 26 17 12 9 13 14 20 33 40 47 57 62 61 58 56 54 54 58 59 57
9 14 13 10 13 20 22 22 30 33 35 41 45 48 48 52 77 61 59 63 47 44 38 31 31 25 19 12 13 17 23 32 40 48 60 64 62 60 59 58 60 60 60 59
11 12 11 12 12 13 18 23 28 29 30 33 34 34 31 45 71 72 68 71 59 54 50 39 40 32 23 18 19 26 28 30 37 45 59 60 56 57 58 58 61 65 66 66
5 5 2 11 19 24 31 34 33 30 36 36 38 41 42 43 49 51 77 83 63 57 55 41 36 33 27 27 30 33 28 28 35 40 54 51 49 50 53 56 55 60 64 64
2 9 16 22 32 36 36 34 31 35 36 39 39 39 43 47 51 51 53 73 65 64 60 40 32 31 29 33 37 39 32 29 31 35 47 44 43 47 48 50 53 58 62 60
7 10 17 11 19 24 24 23 26 24 28 32 35 38 40 39 41 42 49 48 63 62 55 44 40 35 34 39 40 37 30 26 27 31 41 42 44 50 47 51 53 54 61 57
3 10 9 22 25 30 24 19 19 19 22 19 21 22 20 18 25 39 55 56 55 46 44 40 43 44 40 38 39 36 31 27 30 32 35 40 42 43 53 51 45 44 49 53
1 3 6 8 16 25 41 45 45 35 26 21 6 5 10 13 13 24 34 39 43 43 38 34 34 40 38 36 33 31 30 30 31 33 30 36 37 41 47 51 46 36 38 43
Wind_Direction_850mb
346 359 41 42 359 334 132 177 132 164 143 154 142 132 129 120 109 97 102 99 99 98 98 110 129 170 190 204 208 222 223 222 224 260 252 239 235 229 232 236 241 248 249 248
7 0 38 48 16 28 107 113 79 120 104 137 131 126 122 118 116 106 108 103 106 101 107 94 94 105 125 173 186 211 179 209 203 227 209 252 252 224 228 234 238 239 242 248
335 340 3 28 343 12 44 62 135 126 143 139 137 133 132 129 126 122 110 106 103 97 93 93 94 90 93 101 124 141 171 206 229 217 220 216 235 224 243 246 244 241 240 241
156 5 58 246 287 95 71 60 103 118 135 133 129 125 128 127 123 120 114 111 106 103 105 109 102 104 98 105 115 123 122 112 112 148 208 233 234 229 245 260 256 250 251 252
109 135 291 33 334 304 118 34 129 126 120 119 120 118 115 130 130 123 122 117 113 119 121 122 128 129 137 132 128 131 124 121 118 115 121 148 177 207 246 260 252 260 258 256
82 104 179 138 353 15 75 72 162 131 136 135 129 121 148 138 136 130 132 132 127 132 132 148 149 177 182 161 158 144 132 132 137 146 147 140 132 147 290 286 286 272 258 275
77 205 346 337 357 130 154 224 167 157 154 155 126 145 141 138 132 140 136 143 150 152 154 141 165 214 228 215 222 216 206 207 205 198 189 174 104 65 352 336 275 314 296 264
147 144 186 334 360 154 230 134 159 162 158 150 135 137 140 139 134 138 139 150 170 176 186 197 225 246 257 268 274 270 260 251 247 248 249 244 243 258 322 326 292 317 4 334
143 206 245 72 103 113 110 117 122 139 135 138 135 137 143 142 146 150 153 156 170 194 196 239 263 276 262 269 305 302 263 250 245 245 249 259 263 262 255 262 318 308 297 297
74 326 63 113 112 114 109 111 116 128 141 148 144 146 144 146 149 158 171 189 214 227 235 231 290 307 314 306 319 348 317 260 255 248 244 249 254 266 273 276 273 278 286 294
48 269 133 97 134 133 129 134 137 129 135 145 148 153 155 154 161 169 182 213 245 253 238 235 228 190 67 12 356 355 6 356 321 295 272 261 262 265 264 259 284 299 297 300
208 21 263 223 192 175 160 153 152 156 148 156 162 152 155 156 170 186 195 236 252 254 233 218 202 194 62 19 34 33 31 28 20 0 320 303 290 260 255 263 257 258 266 283
0 339 315 313 210 205 189 181 184 178 182 167 169 173 174 171 190 212 229 247 250 265 264 232 151 128 70 40 37 38 31 24 11 356 346 336 325 317 300 250 262 262 264 267
321 311 283 49 204 192 200 189 189 187 197 207 209 207 211 210 226 233 244 246 261 282 197 150 118 76 61 48 45 29 14 2 355 349 342 336 330 323 317 313 307 294 280 277
281 279 280 300 291 203 201 191 191 195 192 198 209 214 208 212 228 242 249 235 251 194 171 146 119 107 77 46 33 17 5 3 2 357 349 342 333 324 318 313 309 306 303 294
280 262 256 231 229 193 209 215 217 200 195 198 200 209 217 227 227 236 243 247 208 202 206 204 178 105 40 32 19 10 7 9 11 6 358 350 341 332 325 318 312 308 305 304
268 253 231 227 219 193 207 198 193 187 211 200 213 226 219 222 217 220 229 230 223 224 217 256 196 192 337 354 2 7 16 18 15 9 2 354 344 333 324 318 313 309 305 303
231 235 272 276 234 239 223 213 210 211 222 204 284 238 220 218 221 229 236 223 219 212 223 216 196 242 321 331 350 1 3 6 3 3 1 356 349 339 329 322 316 310 307 304
212 229 236 252 257 261 246 248 256 259 256 242 267 260 239 233 236 237 223 213 219 212 214 212 209 246 306 313 344 346 351 360 1 1 357 352 346 341 335 327 322 317 311 309
230 231 240 261 259 252 259 262 252 252 251 241 251 251 255 249 237 223 219 218 233 232 213 212 222 244 271 289 335 340 352 0 1 357 353 349 347 343 338 333 328 322 317 313
233 251 248 268 284 273 276 270 263 256 254 256 262 262 266 248 233 223 230 218 220 210 215 218 228 242 250 274 313 313 331 350 353 352 351 347 345 343 340 337 334 332 327 321
194 209 205 242 262 269 275 277 267 264 267 268 267 263 261 242 231 233 228 226 222 213 209 216 227 237 240 260 297 310 308 331 342 346 348 345 343 343 341 336 337 336 333 329
149 100 5 304 299 294 290 286 283 274 264 255 256 262 262 257 247 244 225 219 214 219 219 220 230 239 242 254 276 299 313 315 333 337 343 345 343 342 342 340 339 340 336 333
166 287 289 300 301 297 297 292 285 278 270 266 260 260 261 260 260 257 243 229 219 215 219 220 233 234 245 255 269 286 300 310 319 329 340 344 341 341 337 336 341 343 338 335
230 272 321 2 354 334 321 312 310 303 281 268 258 263 271 263 258 254 237 219 209 201 212 208 224 234 247 253 263 283 297 305 308 318 338 343 338 343 334 332 334 336 336 337
246 4 69 43 31 28 4 334 324 317 304 306 277 269 270 257 252 242 221 216 196 190 166 198 216 231 247 257 263 278 295 293 298 301 323 339 332 333 343 341 333 326 329 336
242 43 95 56 53 50 57 59 52 46 37 14 303 215 310 250 237 189 171 174 175 181 199 205 215 233 247 258 258 282 292 293 302 300 304 330 328 328 340 340 332 330 333 334